www.pogodaiklimat.ru

Погода и климат >> Архив погоды >> Финляндия >> Порвоо


ПОГОДА в Порвоо

  • Прогноз погоды в Порвоо
  • Монитор погоды в Порвоо

АРХИВ ПОГОДЫ в Порвоо

Время (UTC), дата Ветер
(напр.,м/с)
 
Видим.   Явления Облачность Т
(С)
Тd
(С)
f
(%)
Тe
(С)
Тes
(С)
Комфортность P
(гПа)
Po
(гПа)
Тmin
(С)
Tmax
(С)
R
(мм)
R24
(мм)
S
(см)
22 15.09 З 3-6
{8}
50 км 1/0 1000 м
[]
+8.5 +6.9 90 +6 +6 989.2 986.4
23 15.09 З 3 50 км ясно +8.0 +6.7 91 +5 +5 988.9 986.1
00 16.09 З 3-6
{6}
50 км ясно +8.1 +6.9 92 +5 +5 988.8 986.0
01 16.09 З 3-5
{5}
50 км 1/0 1000 м
[]
+7.6 +6.5 93 +5 +5 988.9 986.1
02 16.09 З 3 50 км ясно +7.3 +6.4 94 +4 +4 988.8 986.0
03 16.09 З 3-5
{5}
50 км ясно +7.0 +6.3 95 +4 +4 988.6 985.8
04 16.09 З 4 50 км ясно +7.2 +6.4 95 +4 +4 988.5 985.7
05 16.09 З 3 50 км ясно +7.5 +6.7 95 +4 +5 988.5 985.7
06 16.09 СЗ 5-8
{8}
50 км 6/6 600 м
[]
+9.0 +7.6 91 +5 +6 988.5 985.7 +6.9 +10.4
07 16.09 СЗ 3-8
{8}
45 км ясно +10.1 +7.9 86 +8 +10 988.7 985.9
08 16.09 СЗ 5 50 км 9/9 300 м
[]
+10.6 +7.1 79 +8 +8 989.3 986.5
09 16.09 СЗ 5-8
{9}
50 км 9/9 600 м
[]
+10.7 +6.8 77 +8 +8 990.2 987.4
10 16.09 СЗ 4-7
{8}
50 км 9/9 600 м
[]
+11.6 +6.6 71 +10 +10 990.6 987.8
11 16.09 СЗ 5 27 км слаб. ливневой дождь 9/9 600 м
[]
+10.9 +7.3 78 +8 +8 991.5 988.7
12 16.09 СЗ 4-6
{8}
50 км {ливн. осадки, дождь} 9/4 600 м
[]
+12.3 +6.2 66 +10 +12 992.1 989.3
13 16.09 СЗ 3 50 км в посл. час морось 9/6 600 м
[]
+10.2 +8.4 89 +8 +9 992.8 990.0
14 16.09 СЗ 4 50 км 9/1 600 м
[]
+10.8 +7.0 77 +8 +9 993.2 990.4
15 16.09 СЗ 5-7
{7}
40 км слаб. морось {дождь} 9/4 300 м
[]
+10.9 +7.8 81 +8 +8 993.8 991.0
16 16.09 С 4 19 км слаб. дождь 10/10 600 м
[]
+9.0 +8.3 95 +6 +6 994.4 991.6
17 16.09 СЗ 3 50 км в посл. час дождь 10/10 1000 м
[]
+8.9 +8.4 97 +6 +6 994.8 992.0
18 16.09 СЗ 2-3
{5}
50 км {ливн. осадки, дождь} 9/9
[]
+8.4 +7.9 97 +6 +6 995.2 992.4 +8.4 +12.5 0.9
19 16.09 СЗ 2-4
{4}
50 км 10/10
[]
+8.2 +7.9 98 +6 +6 995.6 992.8
20 16.09 СЗ 3-5
{5}
50 км 10/10
[]
+8.4 +7.9 97 +6 +6 995.8 993.0
21 16.09 СЗ 3-5
{5}
50 км 10/10 2000 м
[]
+8.2 +7.5 95 +5 +5 996.1 993.2
22 16.09 СЗ 3 50 км 10/10
[]
+8.1 +6.7 91 +5 +5 996.1 993.3
23 16.09 СЗ 3-4
{5}
50 км 6/0 2000 м
[]
+7.5 +6.1 91 +5 +5 996.2 993.3
00 17.09 СЗ 3-5
{5}
50 км ясно +6.5 +5.6 94 +3 +3 996.2 993.4
01 17.09 СЗ 3-5
{5}
45 км 1/0 600 м
[]
+5.9 +5.6 98 +2 +2 996.2 993.4
02 17.09 СЗ 3-5
{6}
50 км 9/6 1000 м
[]
+6.0 +5.6 97 +3 +3 996.2 993.4
03 17.09 СЗ 3 50 км 9/1 1000 м
[]
+5.9 +5.4 97 +2 +2 996.2 993.3
04 17.09 СЗ 3 50 км 9/6 1000 м
[]
+5.8 +5.4 97 +2 +2 996.2 993.3
05 17.09 СЗ 3 50 км 9/9 1000 м
[]
+6.3 +5.7 96 +3 +3 996.2 993.3
06 17.09 СЗ 2-4
{5}
40 км 9/1 1000 м
[]
+7.0 +5.9 93 +5 +5 996.4 993.5 +5.7 +8.4
07 17.09 СЗ 3-4
{5}
40 км 6/1 300 м
[]
+8.1 +6.4 89 +5 +7 996.4 993.6
08 17.09 С 3-6
{6}
45 км 9/9 300 м
[]
+9.1 +6.1 81 +7 +7 996.5 993.7
09 17.09 СЗ 3-4
{6}
45 км 9/9 1000 м
[]
+10.5 +5.6 72 +9 +9 996.6 993.8
10 17.09 СЗ 3 50 км 9/6 600 м
[]
+9.9 +5.5 74 +8 +9 996.7 994.0
11 17.09 З 2 50 км 9/9 600 м
[]
+10.0 +5.9 76 +9 +9 996.9 994.1
12 17.09 С 2-4
{5}
50 км 9/6 1000 м
[]
+11.1 +4.8 65 +10 +11 997.0 994.2
13 17.09 СЗ 3 50 км 9/9 600 м
[]
+10.8 +5.5 70 +9 +9 997.1 994.3
14 17.09 С 4 50 км 9/9 1000 м
[]
+10.6 +5.6 71 +8 +8 997.0 994.2
15 17.09 С 4-6
{6}
50 км 9/9 1000 м
[]
+10.2 +5.8 74 +8 +8 997.1 994.3
16 17.09 С 2 50 км 6/6
[]
+9.6 +6.0 78 +8 +8 997.3 994.5
17 17.09 С 1-2
{4}
50 км 9/4 1000 м
[]
+8.6 +6.2 85 +8 +8 997.5 994.7
18 17.09 С 3-4
{4}
35 км морось 9/4 1000 м
[]
+8.1 +6.9 92 +5 +5 997.7 994.8 +7.0 +11.3
19 17.09 С 3 50 км морось 10/10 1000 м
[]
+8.1 +7.4 95 +5 +5 997.9 995.1
20 17.09 С 2 50 км в посл. час морось 9/6 1000 м
[]
+7.8 +7.3 97 +6 +6 998.2 995.3
21 17.09 С 2-3
{3}
50 км в посл. час морось {ливн. осадки} 4/1 1000 м
[]
+7.0 +6.7 98 +5 +5 998.3 995.4
22 17.09 С 2 30 км 1/1
[]
+6.2 +6.1 99 +4 +4 998.5 995.6
23 17.09 С 2 45 км 9/9
[]
+6.2 +6.2 100 +4 +4 998.7 995.9
00 18.09 С 3-3
{3}
50 км {ливн. осадки, морось} 10/1 1000 м
[]
+5.9 +5.9 100 +2 +2 999.2 996.4
01 18.09 С 2-3
{4}
50 км 9/1 1000 м
[]
+6.1 +6.1 100 +3 +3 999.4 996.5
02 18.09 С 2 35 км 9/9 1000 м
[]
+5.7 +5.6 99 +3 +3 999.9 997.0
03 18.09 С 3-5
{5}
50 км 10/10 1000 м
[]
+6.9 +6.3 96 +4 +4 1000.3 997.5
04 18.09 С 4 50 км 6/6 1000 м
[]
+6.4 +5.8 96 +2 +2 1000.8 997.9
05 18.09 С 4-5
{5}
50 км 10/0 1500 м
[]
+7.3 +6.4 94 +4 +4 1001.6 998.8
06 18.09 С 4-6
{6}
50 км 9/9 1000 м
[]
+8.1 +6.7 91 +5 +5 1002.3 999.4 +5.6 +8.3 0.1
07 18.09 С 4-6
{7}
45 км 4/4 300 м
[]
+10.1 +6.3 77 +8 +8 1002.8 1000.0
08 18.09 СВ 5-8
{9}
45 км 1/0 600 м
[]
+10.5 +4.3 65 +8 +10 1003.4 1000.6
09 18.09 С 5-7
{11}
45 км {ливн. осадки, дождь} 6/6 600 м
[]
+11.9 +4.2 59 +10 +11 1003.9 1001.1
10 18.09 С 5 40 км 9/9 600 м
[]
+11.7 +3.5 57 +9 +10 1004.4 1001.6
11 18.09 С 5-11
{11}
7000 м ливневой дождь 9/9 600 м
[]
+11.1 +3.4 59 +9 +9 1005.2 1002.4 0.3
12 18.09 СВ 4-9
{9}
27 км слаб. ливневой дождь 6/4 600 м
[]
+10.6 +4.6 66 +8 +10 1005.7 1002.9 0.2
13 18.09 СВ 5 50 км 1/1 1000 м
[]
+10.6 +3.0 59 +8 +9 1006.0 1003.2
14 18.09 С 5-5
{9}
50 км 6/6 1000 м
[]
+10.4 +2.6 58 +8 +8 1006.5 1003.7
15 18.09 С 4-6
{14}
50 км в посл. час дождь {ливн. осадки, метель} 9/1 1500 м
[]
+8.1 +5.5 84 +5 +5 1007.6 1004.7
16 18.09 С 2 50 км 1/1 2000 м
[]
+7.5 +5.4 87 +5 +5 1008.2 1005.3
17 18.09 С 1 50 км 1/1 2000 м
[]
+6.5 +5.3 92 +5 +5 1008.8 1005.9
18 18.09 СЗ 1-2
{2}
50 км {ливн. осадки, метель} 1/1 2000 м
[]
+4.6 +4.2 97 +3 +3 1009.6 1006.8 +4.6 +12.6 0.5
19 18.09 С 1 50 км ясно +3.6 +3.3 98 +2 +2 1010.1 1007.2
20 18.09 С 1 50 км ясно +2.9 +2.7 99 +1 +1 1010.6 1007.7
21 18.09 СЗ 2-2
{2}
50 км 1/0
[]
+2.3 +2.2 99 -1 -1 1011.0 1008.1
22 18.09 С 1-2
{2}
50 км ясно +1.8 +1.7 99 -0 -0 1011.3 1008.3
23 18.09 С 1 50 км ясно +1.6 +1.6 100 -1 -1 1011.5 1008.6
00 19.09 С 1-1
{2}
50 км ясно +0.1 +0.1 100 -2 -2 1011.9 1009.0
01 19.09 С 1 50 км ясно -0.2 -0.2 100 -3 -3 1012.2 1009.3
02 19.09 штиль 0 50 км ясно -0.6 -0.6 100 -2 -2 1012.3 1009.4
03 19.09 З 1-1
{1}
50 км 6/6
[]
-1.3 -1.3 100 -4 -4 1012.4 1009.5
04 19.09 СЗ 1 50 км 9/9
[]
-0.8 -0.8 100 -3 -3 1012.7 1009.7
05 19.09 штиль 0 50 км 9/9
[]
-0.1 -0.1 100 -2 -2 1013.0 1010.1
06 19.09 штиль 0-1
{2}
35 км 6/6
[]
+1.5 +1.4 99 0 +1 1013.3 1010.4 -1.4 +4.6
07 19.09 штиль 0-2
{2}
45 км 6/6
[]
+4.4 +3.4 93 +3 +4 1013.5 1010.6
08 19.09 СЗ 1-2
{2}
35 км 6/6
[]
+7.1 +4.8 85 +6 +8 1013.8 1010.9
09 19.09 З 2-4
{4}
40 км 1/1
[]
+9.1 +2.2 62 +8 +12 1013.9 1011.1
10 19.09 З 2 45 км ясно +10.3 -0.6 47 +9 +15 1013.8 1011.0
11 19.09 З 3 45 км 1/1 1000 м
[]
+11.2 +0.1 46 +10 +14 1013.7 1010.8
12 19.09 СЗ 2-4
{6}
45 км 1/1 1500 м
[]
+12.1 +0.8 46 +12 +15 1013.5 1010.7
13 19.09 СЗ 2 35 км слаб. ливневой дождь 9/9 1000 м
[]
+10.3 +2.2 57 +9 +10 1013.6 1010.7
14 19.09 С 5 8000 м сильн. ливневой дождь 9/9 1000 м
[]
+7.6 +5.5 87 +4 +4 1013.8 1010.9
15 19.09 З 2-4
{4}
50 км в посл. час морось {ливн. осадки, дождь} 6/1 1000 м
[]
+8.6 +5.3 80 +7 +7 1013.9 1011.0
16 19.09 СЗ 2 50 км ясно +8.0 +5.3 83 +6 +6 1014.1 1011.2
17 19.09 С 6 50 км 4/4 600 м
[]
+7.0 +3.3 77 +3 +3 1014.6 1011.7
18 19.09 СЗ 4-5
{7}
50 км {ливн. осадки, дождь} ясно +5.3 +2.9 84 +1 +1 1015.2 1012.3 +1.5 +12.3 0.7
19 19.09 СЗ 4-6
{7}
50 км 1/0 1000 м
[]
+4.8 +2.6 86 +1 +1 1015.4 1012.5
20 19.09 СЗ 3 50 км ясно +4.0 +2.4 89 0 0 1015.6 1012.7
21 19.09 СЗ 3-5
{5}
50 км ясно +3.4 +2.7 95 -1 -1 1016.3 1013.4
22 19.09 СЗ 4 50 км ясно +3.4 +2.4 93 -1 -1 1016.7 1013.7
23 19.09 СЗ 4-6
{7}
50 км ясно +2.9 +2.1 94 -2 -2 1016.9 1014.0
00 20.09 СЗ 3-4
{6}
50 км ясно +2.4 +1.9 96 -2 -2 1017.1 1014.1
01 20.09 СЗ 1-3
{4}
50 км ясно +1.5 +1.1 97 -1 -1 1017.1 1014.2
02 20.09 штиль 0 50 км ясно +1.0 +0.8 99 -0 -0 1017.0 1014.1
03 20.09 СЗ 1-2
{4}
50 км ясно +0.4 +0.4 100 -2 -2 1017.0 1014.0
04 20.09 З 2 50 км ясно -0.2 -0.2 100 -4 -4 1017.1 1014.2
05 20.09 СЗ 2-4
{4}
50 км ясно +0.5 +0.5 100 -3 -3 1017.2 1014.3
06 20.09 СЗ 2-4
{4}
50 км ясно +2.6 +1.1 90 -1 0 1016.9 1014.0 -0.2 +5.4
07 20.09 СЗ 2 45 км ясно +4.8 +1.8 81 +2 +4 1017.1 1014.2
08 20.09 СЗ 3-5
{5}
40 км ясно +7.5 +2.7 72 +5 +8 1017.0 1014.1
09 20.09 З 3-5
{6}
45 км ясно +9.2 +1.7 59 +7 +11 1016.7 1013.9
10 20.09 З 3 35 км 4/4 1000 м
[]
+10.7 +2.6 57 +9 +12 1016.5 1013.6
11 20.09 СЗ 3 45 км 4/1 1000 м
[]
+10.7 -0.6 45 +9 +12 1015.9 1013.1
12 20.09 З 3-4
{7}
45 км 4/1 1500 м
[]
+11.1 -0.8 44 +10 +12 1015.7 1012.9
13 20.09 С 4 40 км 4/4 1500 м
[]
+11.7 -0.7 42 +10 +11 1015.4 1012.5
14 20.09 З 3 50 км ясно +10.6 +0.1 48 +9 +10 1015.1 1012.2
15 20.09 З 2-3
{5}
50 км 1/1 2000 м
[]
+9.9 +1.6 56 +9 +9 1014.8 1011.9
16 20.09 ЮЗ 2 50 км 4/0
[]
+9.1 +2.3 62 +8 +8 1014.6 1011.7
17 20.09 ЮЗ 2 50 км 9/0
[]
+7.8 +2.7 70 +6 +6 1014.3 1011.5
18 20.09 З 2-3
{3}
50 км 9/1 1500 м
[]
+7.1 +2.8 74 +5 +5 1014.1 1011.3 +2.6 +12.1
19 20.09 З 2-3
{3}
50 км 9/9 2000 м
[]
+6.6 +3.2 79 +4 +4 1014.2 1011.3
20 20.09 З 3 40 км слаб. ливневой дождь 10/10 1000 м
[]
+7.1 +4.8 85 +4 +4 1013.8 1010.9
21 20.09 З 2-2
{4}
50 км {ливн. осадки, морось} 4/4 1500 м
[]
+6.2 +4.8 91 +4 +4 1013.1 1010.2
22 20.09 З 1 50 км 1/1
[]
+5.5 +4.6 94 +4 +4 1012.8 1009.9
23 20.09 ЮЗ 1 50 км 6/1 1500 м
[]
+4.7 +4.1 96 +3 +3 1012.3 1009.4
00 21.09 Ю 1-1
{1}
35 км слаб. морось 9/9 600 м
[]
+4.9 +4.6 98 +3 +3 1011.4 1008.5
01 21.09 Ю 1-1
{1}
40 км слаб. морось 9/6 600 м
[]
+5.2 +5.0 99 +4 +4 1010.8 1007.9
02 21.09 ЮВ 1 50 км в посл. час морось 9/1 600 м
[]
+5.2 +5.0 99 +4 +4 1010.1 1007.2
03 21.09 штиль 0-1
{1}
30 км морось 9/6 1500 м
[]
+4.6 +4.5 99 +3 +3 1009.0 1006.2
04 21.09 В 1 15 км морось 10/10 1000 м
[]
+4.7 +4.7 100 +3 +3 1008.5 1005.6
05 21.09 С 1-2
{2}
11 км морось 10/10 600 м
[]
+5.5 +5.5 100 +4 +4 1008.0 1005.2 0.4
06 21.09 СВ 1-2
{2}
7000 м морось {дождь} 10/10 300 м
[]
+6.5 +6.5 100 +5 +5 1007.5 1004.7 +4.3 +7.1 1
07 21.09 СВ 2 40 км в посл. час морось 10/10 300 м
[]
+7.2 +7.2 100 +5 +5 1007.5 1004.7
08 21.09 СВ 2 11 км слаб. ливневой дождь 9/9 50 м
[]
+7.5 +7.4 99 +5 +5 1007.3 1004.5
09 21.09 СВ 2-3
{3}
50 км {ливн. осадки, морось} 9/9 100 м
[]
+8.9 +8.3 96 +7 +7 1007.7 1004.8
10 21.09 С 3 50 км 9/9 200 м
[]
+9.6 +8.3 92 +7 +8 1007.5 1004.7
11 21.09 СЗ 3 45 км 9/9 200 м
[]
+9.1 +7.7 91 +7 +7 1007.7 1004.9
12 21.09 СЗ 3-5
{5}
50 км {ливн. осадки, морось} 9/9 300 м
[]
+9.3 +7.3 87 +7 +7 1008.1 1005.3
13 21.09 С 4-6
{6}
50 км 9/9 300 м
[]
+9.2 +7.1 87 +6 +6 1008.0 1005.2
14 21.09 С 3-5
{6}
50 км 9/0 1000 м
[]
+9.0 +6.9 87 +6 +7 1007.9 1005.1
15 21.09 С 2-3
{5}
50 км 9/9 1000 м
[]
+9.2 +7.1 87 +7 +7 1008.0 1005.2
16 21.09 СЗ 2 50 км 9/9 1000 м
[]
+8.8 +6.9 88 +7 +7 1008.2 1005.4
17 21.09 СЗ 1 50 км 10/10 600 м
[]
+8.5 +7.1 91 +8 +8 1008.5 1005.7
18 21.09 СЗ 3-4
{4}
35 км слаб. ливневой дождь {морось} 10/10 300 м
[]
+8.0 +6.9 93 +5 +5 1008.9 1006.0 +6.5 +10.0 0.1
19 21.09 СЗ 3-5
{5}
50 км в посл. час морось 10/10 1000 м
[]
+7.6 +7.3 98 +5 +5 1008.9 1006.0
20 21.09 СЗ 3 50 км ливневой дождь 10/10 600 м
[]
+7.4 +7.0 97 +4 +4 1009.3 1006.4
21 21.09 СЗ 4-7
{7}
50 км {ливн. осадки, метель} 9/9 1500 м
[]
+7.2 +6.6 96 +3 +3 1009.5 1006.7
22 21.09 С 5 50 км 6/6 1000 м
[]
+6.8 +5.9 94 +3 +3 1009.8 1006.9
23 21.09 С 5-8
{9}
50 км ясно +5.8 +4.3 90 +1 +1 1010.3 1007.4
00 22.09 С 5-7
{8}
50 км {ливн. осадки, метель} ясно +5.1 +3.8 91 0 0 1010.7 1007.8
01 22.09 СЗ 4 50 км ясно +4.4 +3.4 93 -0 -0 1011.4 1008.5
02 22.09 СЗ 4-6
{6}
50 км ясно +3.8 +3.2 96 -1 -1 1012.0 1009.0
03 22.09 СЗ 4-6
{6}
50 км ясно +3.1 +2.5 96 -2 -2 1012.5 1009.5
04 22.09 СЗ 3 50 км ясно +2.6 +2.1 97 -2 -2 1013.0 1010.1
05 22.09 СЗ 1 50 км ясно +2.5 +2.1 97 +1 +1 1013.5 1010.5
06 22.09 С 4-6
{6}
45 км ясно +4.4 +2.7 89 0 +1 1014.2 1011.3 +2.3 +8.0
07 22.09 С 4 45 км ясно +5.8 +3.2 83 +2 +3 1014.7 1011.8
08 22.09 С 5 50 км ясно +7.6 +2.1 68 +4 +6 1015.2 1012.3
09 22.09 С 5-8
{10}
40 км 4/4 600 м
[]
+8.3 +1.4 62 +5 +6 1015.4 1012.6
10 22.09 С 6 50 км 6/6 600 м
[]
+8.0 +1.3 63 +4 +5 1015.9 1013.0
11 22.09 С 7 45 км 1/1 1000 м
[]
+9.6 +1.2 56 +6 +7 1016.3 1013.4
12 22.09 С 7-10
{11}
45 км 1/1 1000 м
[]
+10.1 +0.4 51 +7 +8 1016.7 1013.8
13 22.09 С 7 40 км 1/1 1000 м
[]
+9.8 -0.3 49 +6 +7 1016.8 1013.9
14 22.09 С 6 45 км 1/1 1000 м
[]
+9.6 -0.4 50 +6 +7 1017.3 1014.5
15 22.09 С 6-9
{12}
50 км ясно +8.7 -0.9 51 +5 +6 1018.1 1015.2
16 22.09 С 4-4
{9}
50 км ясно +7.6 -0.2 58 +5 +5 1018.5 1015.6
17 22.09 СЗ 1 50 км ясно +5.5 0.0 68 +5 +5 1019.1 1016.2
18 22.09 СЗ 2-3
{3}
50 км ясно +3.9 -0.1 75 +1 +1 1019.6 1016.7 +3.9 +10.5
19 22.09 СЗ 2 50 км ясно +2.8 -0.3 80 -0 -0 1020.4 1017.4
20 22.09 СЗ 2 50 км ясно +3.2 -0.1 79 0 0 1020.6 1017.6
21 22.09 СЗ 2-2
{3}
50 км ясно +2.0 -0.4 84 -1 -1 1021.0 1018.1
22 22.09 СЗ 2 50 км ясно +1.8 -0.1 87 -2 -2 1021.5 1018.5

 

Местоположение метеостанции Порвоо (Финляндия): широта 60.39 долгота 25.61 высота над уровнем моря 22 м.

В архиве по умолчанию представлена погода в Порвоо за последнюю неделю. Архивные данные за месяц целиком и за предыдущие месяцы, начиная с января 2011 года, Вы можете получить, выбрав интересующий диапазон дат из раскрывающегося списка и нажав кнопку "Ввод!".


*Определитесь, кто Вы:
робот инопланетянин человек

Внимание! Время в таблицах - всемирное. Для получения местного времени необходимо прибавить поправку, которая равна 1 ч.

Смотрите также архив погоды в соседних городах и на ближайших метеорологических станциях:

Погода в Килпилахти (Финляндия) (11 км)
Погода на Эмасало (Финляндия) (21 км)
Погода на Острове Синго (Финляндия) (35 км)
Погода в Хельсинки (Финляндия) (36 км)
Погода в Хельсинки университете (Финляндия) (42 км)
Погода в Хельсинки Кайсаниеми (Финляндия) (44 км)
Погода на Маяке Kalbadagrund (Финляндия) (44 км)
Погода на Острове Хармая (Финляндия) (47 км)
Погода в Орренгрунде (Финляндия) (48 км)
Погода в Хювинкяа (Финляндия) (50 км)

Пояснения к столбцам:

Ветер - указаны скорость ветра в м/с - средняя за 10 мин, порывы в срок и между сроками (в фигурных скобках) и направление, откуда дует ветер: С - северный, СВ - северо-восточный, В - восточный, ЮВ - юго-восточный, Ю - южный, ЮЗ - юго-западный, З - западный, СЗ - северо-западный.
Видимость - горизонтальная дальность видимости в метрах или километрах. При видимости от 1 до 10 км при отсутствии осадков обычно наблюдается дымка, при ухудшении видимости до 1 км и менее - туман. В сухую погоду видимость может ухудшаться дымом, пылью или мглою.
Явления - указаны атмосферные явления, наблюдавшиеся в срок или в последний час перед сроком; фигурными скобками обозначены явления, наблюдавшиеся между сроками (за 1-3 часа до срока); квадратными скобками обозначены град или гололедные отложения с указанием их диаметра в мм.
Облачность - указаны через наклонную черту общая и нижняя облачность в баллах и высота нижней границы облаков в метрах; квадратными скобками обозначены формы облаков: Ci - перистые, Cs - перисто-слоистые, Cc - перисто-кучевые, Ac - высококучевые, As - высокослоистые, Sc - слоисто-кучевые, Ns - слоисто-дождевые, Cu - кучевые, Cb - кучево-дождевые. Подробнее классификацию облаков см. в Атласе облаков (PDF).
T - Температура воздуха - температура, измеренная на высоте 2 м над землей.
Td - Температура точки росы - температура, при понижении до которой содержащийся в воздухе водяной пар достигнет насыщения.
f - Относительная влажность воздуха - влажноcть воздуха, измеренная на высоте 2 м над землей.
Te - Эффективная температура - температура, которую ощущает одетый по сезону человек в тени. Характеристика душности погоды. При расчете учитывается влияние влажности воздуха и скорости ветра на теплоощущения человека.
Tes - Эффективная температура на солнце - температура, которую ощущает человек, с поправкой на солнечный нагрев. Характеристика знойности погоды. Зависит от высоты солнца над горизонтом, облачности и скорости ветра. Ночью, в пасмурную погоду, а также при ветре 12 м/с и более поправка равна нулю.
P - Атмосферное давление - приведенное к уровню моря атмосферное давление.
Po - Атмосферное давление - измеренное на уровне метеостанции атмосферное давление.
Tmin - Минимальная температура - минимум температуры воздуха на высоте 2 м над землей.
Tmax - Максимальная температура - максимум температуры воздуха на высоте 2 м над землей.
R - Количество осадков - Количество выпавших осадков за период времени, мм. При наведении курсора мыши на число - период времени, за который выпало указанное количество осадков.
R24 - Количество осадков - Количество выпавших осадков за 24 часа, мм.
S - Снежный покров - Высота снежного покрова, см. При наведении курсора мыши на число - состояние снежного покрова и степень покрытия местности в баллах.